星链-31636 (STARLINK-31636 )

导读 | 星芒AI

STARLINK-31636 是 SpaceX Starlink 项目中的一颗低轨通信卫星,属于第三代星链卫星(v1.5 或 v2 版本)。它于 2023 年发射,旨在为全球用户提供高速互联网服务。该卫星采用先进的推进系统和激光通信技术,提高网络稳定性和传输效率。作为 Starlink 卫星群的一部分,它运行在约 550 公里的轨道高度,支持全球范围内的宽带连接,尤其服务于偏远和网络基础设施薄弱的地区。

基本信息
目录编号:
59747
目录名称:
STARLINK-31636
国际标识:
2024-090T
轨道中心:
EARTH
卫星名称:
星链-31636
卫星全名:
星链-31636 (STARLINK-31636 )
卫星状态:
在轨 (已飞行537 天)
发射日期:
2024-05-13 UTC
国别 :
美国 (US)
星等 :
--
轨道信息
数据来源 国际轨道数据 AOE轨道数据
星历时间 2025-11-01T00:36:36+0800
1天前
查看轨道信息
2025-10-27T15:00:00+0800
5天前
查看轨道信息
半长轴 6861.208km 6861.176km
偏心率 0.0001281 0.0000982
轨道倾角 43.002° 43.000°
近地点辐角 277.606° 251.043°
升交点赤经 191.832° 216.692°
平近点角 82.464° 1.519°
近地点 482.194km 482.367km
远地点 483.952km 483.715km
周期 94.267分钟 94.267分钟
每日圈数 15.275727 15.275836
详细信息
固有亮度:
5
最大亮度:
1.5
卫星平台:
Starlink v2.0 mini
覆盖范围:
全球
运营商:
太空探索技术公司
运营商所在国:
美国
制造商(研发单位):
太空探索技术公司
制造商所在国:
美国
使用方式:
暂无
卫星简介
星链(Starlink)计划是由太空探索技术公司(SpaceX)提出的一个巨型低轨卫星互联网星座项目,计划在2019年至2024年间在太空搭建由约1.2万颗卫星组成的“星链”网络,其中1584颗将部署在地球上空550千米处的近地轨道,并从2020年开始工作。该卫星仍在工作。
2D轨道图
3D轨道图
轨道高度分析图
轨道倾角分析图
轨道综合分析图
查看轨道综合分析图